Hourly Data Report for July 04, 2021

LYNN LAKE
MANITOBA
Current Station Operator: NAVCAN

56°51'50.000" N
101°04'34.000" W
356.60 m
5061645
71078
YYL

Download Data

Hourly Data (July 2021)
Hourly Data Report for July 4, 2021
TIME
LST
Temp Definition
°C
Dew Point Definition
°C
Rel Hum Definition
%
Precip. Amount Definition
mm

Wind Dir Definition
10's deg

Wind Spd Definition
km/h
Visibility Definition
km
Stn Press Definition
kPa
Hmdx Definition


Wind Chill Definition


Weather Definition


00:00 17.1 15.8 92 0.0 35 24 16.1 96.12     LegendNANA
01:00
02:00
03:00 12.6 12.1 97 0.0 1 18 16.1 96.23     Rain
04:00 12.1 11.5 96 0.0 36 17 16.1 96.31     LegendNANA
05:00 11.8 11.2 96 0.0 36 21 16.1 96.31     LegendNANA
06:00 11.4 10.8 96 0.0 2 13 16.1 96.41     LegendNANA
07:00 10.8 10.3 97 0.0 2 18 16.1 96.42     LegendNANA
08:00 9.8 9.4 97 0.0 1 17 8.1 96.52     Fog
09:00 9.5 8.7 94 0.2 1 15 16.1 96.58     Rain
10:00 9.7 9.1 96 0.5 2 18 8.1 96.64     Rain, Fog
11:00 9.4 8.4 93 0.0 3 22 16.1 96.71     LegendNANA
12:00 10.0 9.2 95 0.0 2 22 14.5 96.76     LegendNANA
13:00 11.0 9.3 89 0.0 5 18 16.1 96.84     LegendNANA
14:00 10.5 9.1 91 0.0 2 28 16.1 96.91     LegendNANA
15:00 10.0 9.4 96 0.2 LegendMM LegendMM 4.0 97.04     Rain, Fog
16:00 9.5 8.7 95 0.0 3 24 8.1 97.11     Rain, Fog
17:00 9.8 8.4 91 0.0 4 21 14.5 97.18     LegendNANA
18:00 9.3 8.7 96 0.2 4 17 9.7 97.27     Rain, Fog
19:00 8.9 8.1 95 0.2 4 22 12.9 97.32     LegendNANA
20:00 8.5 7.9 96 0.0 4 22 9.7 97.37     Rain, Fog
21:00 8.2 7.5 95 0.0 5 18 12.9 97.44     LegendNANA
22:00 8.0 7.4 96 0.0 5 21 6.4 97.51     Rain, Fog
23:00 7.8 7.4 97 0.2 4 21 2.8 97.57     Rain, Fog

Notes on Data Quality.

Legend

  • E = Estimated
  • M = Missing
  • NA = Not Available*
  • [empty] = Indicates an unobserved value
Date modified: